Year,Month,Day,Hour,Minute,Value (Times are PST for temperature in C)
2007,05,18,00,00,9.80
2007,05,18,00,01,9.80
2007,05,18,00,02,9.80
2007,05,18,00,03,9.80
2007,05,18,00,04,9.70
2007,05,18,00,05,9.70
2007,05,18,00,06,9.70
2007,05,18,00,07,9.70
2007,05,18,00,08,9.70
2007,05,18,00,09,9.70
2007,05,18,00,10,9.70
2007,05,18,00,11,9.70
2007,05,18,00,12,9.70
2007,05,18,00,13,9.70
2007,05,18,00,14,9.70
2007,05,18,00,15,9.70
2007,05,18,00,16,9.70
2007,05,18,00,17,9.70
2007,05,18,00,18,9.70
2007,05,18,00,19,9.70
2007,05,18,00,20,9.70
2007,05,18,00,21,9.70
2007,05,18,00,22,9.70
2007,05,18,00,23,9.70
2007,05,18,00,24,9.70
2007,05,18,00,25,9.70
2007,05,18,00,26,9.70
2007,05,18,00,27,9.70
2007,05,18,00,28,9.70
2007,05,18,00,29,9.70
2007,05,18,00,30,9.70
2007,05,18,00,31,9.70
2007,05,18,00,32,9.70
2007,05,18,00,33,9.70
2007,05,18,00,34,9.70
2007,05,18,00,35,9.70
2007,05,18,00,36,9.70
2007,05,18,00,37,9.70
2007,05,18,00,38,9.70
2007,05,18,00,39,9.80
2007,05,18,00,40,9.70
2007,05,18,00,41,9.70
2007,05,18,00,42,9.70
2007,05,18,00,43,9.70
2007,05,18,00,44,9.70
2007,05,18,00,45,9.70
2007,05,18,00,46,9.70
2007,05,18,00,47,9.60
2007,05,18,00,48,9.60
2007,05,18,00,49,9.60
2007,05,18,00,50,9.60
2007,05,18,00,51,9.60
2007,05,18,00,52,9.60
2007,05,18,00,53,9.60
2007,05,18,00,54,9.60
2007,05,18,00,55,9.60
2007,05,18,00,56,9.60
2007,05,18,00,57,9.60
2007,05,18,00,58,9.60
2007,05,18,00,59,9.60
2007,05,18,01,00,9.60
2007,05,18,01,01,9.60
2007,05,18,01,02,9.60
2007,05,18,01,03,9.60
2007,05,18,01,04,9.50
2007,05,18,01,05,9.50
2007,05,18,01,06,9.50
2007,05,18,01,07,9.50
2007,05,18,01,08,9.50
2007,05,18,01,09,9.50
2007,05,18,01,10,9.50
2007,05,18,01,11,9.40
2007,05,18,01,12,9.40
2007,05,18,01,13,9.40
2007,05,18,01,14,9.40
2007,05,18,01,15,9.40
2007,05,18,01,16,9.40
2007,05,18,01,17,9.40
2007,05,18,01,18,9.40
2007,05,18,01,19,9.30
2007,05,18,01,20,9.30
2007,05,18,01,21,9.30
2007,05,18,01,22,9.30
2007,05,18,01,23,9.30
2007,05,18,01,24,9.20
2007,05,18,01,25,9.20
2007,05,18,01,26,9.20
2007,05,18,01,27,9.20
2007,05,18,01,28,9.20
2007,05,18,01,29,9.20
2007,05,18,01,30,9.10
2007,05,18,01,31,9.10
2007,05,18,01,32,9.10
2007,05,18,01,33,9.10
2007,05,18,01,34,9.10
2007,05,18,01,35,9.10
2007,05,18,01,36,9.10
2007,05,18,01,37,9.10
2007,05,18,01,38,9.10
2007,05,18,01,39,9.10
2007,05,18,01,40,9.10
2007,05,18,01,41,9.10
2007,05,18,01,42,9.10
2007,05,18,01,43,9.10
2007,05,18,01,44,9.20
2007,05,18,01,45,9.20
2007,05,18,01,46,9.20
2007,05,18,01,47,9.20
2007,05,18,01,48,9.20
2007,05,18,01,49,9.20
2007,05,18,01,50,9.20
2007,05,18,01,51,9.20
2007,05,18,01,52,9.20
2007,05,18,01,53,9.20
2007,05,18,01,54,9.20
2007,05,18,01,55,9.20
2007,05,18,01,56,9.20
2007,05,18,01,57,9.20
2007,05,18,01,58,9.20
2007,05,18,01,59,9.20
2007,05,18,02,00,9.20
2007,05,18,02,01,9.30
2007,05,18,02,02,9.30
2007,05,18,02,03,9.30
2007,05,18,02,04,9.30
2007,05,18,02,05,9.20
2007,05,18,02,06,9.30
2007,05,18,02,07,9.30
2007,05,18,02,08,9.30
2007,05,18,02,09,9.30
2007,05,18,02,10,9.30
2007,05,18,02,11,9.30
2007,05,18,02,12,9.40
2007,05,18,02,13,9.40
2007,05,18,02,14,9.40
2007,05,18,02,15,9.40
2007,05,18,02,16,9.40
2007,05,18,02,17,9.40
2007,05,18,02,18,9.50
2007,05,18,02,19,9.50
2007,05,18,02,20,9.50
2007,05,18,02,21,9.40
2007,05,18,02,22,9.40
2007,05,18,02,23,9.40
2007,05,18,02,24,9.40
2007,05,18,02,25,9.30
2007,05,18,02,26,9.30
2007,05,18,02,27,9.30
2007,05,18,02,28,9.30
2007,05,18,02,29,9.20
2007,05,18,02,30,9.20
2007,05,18,02,31,9.20
2007,05,18,02,32,9.10
2007,05,18,02,33,9.10
2007,05,18,02,34,9.10
2007,05,18,02,35,9.10
2007,05,18,02,36,9.00
2007,05,18,02,37,9.00
2007,05,18,02,38,8.90
2007,05,18,02,39,8.90
2007,05,18,02,40,8.90
2007,05,18,02,41,8.90
2007,05,18,02,42,8.90
2007,05,18,02,43,8.90
2007,05,18,02,44,8.90
2007,05,18,02,45,8.90
2007,05,18,02,46,8.90
2007,05,18,02,47,8.90
2007,05,18,02,48,8.90
2007,05,18,02,49,8.90
2007,05,18,02,50,9.00
2007,05,18,02,51,9.00
2007,05,18,02,52,9.00
2007,05,18,02,53,9.00
2007,05,18,02,54,9.00
2007,05,18,02,55,9.00
2007,05,18,02,56,9.00
2007,05,18,02,57,8.90
2007,05,18,02,58,8.90
2007,05,18,02,59,8.90
2007,05,18,03,00,8.90
2007,05,18,03,01,8.90
2007,05,18,03,02,8.90
2007,05,18,03,03,8.90
2007,05,18,03,04,8.90
2007,05,18,03,05,8.90
2007,05,18,03,06,8.80
2007,05,18,03,07,8.80
2007,05,18,03,08,8.80
2007,05,18,03,09,8.80
2007,05,18,03,10,8.80
2007,05,18,03,11,8.80
2007,05,18,03,12,8.80
2007,05,18,03,13,8.80
2007,05,18,03,14,8.80
2007,05,18,03,15,8.80
2007,05,18,03,16,8.80
2007,05,18,03,17,8.80
2007,05,18,03,18,8.80
2007,05,18,03,19,8.80
2007,05,18,03,20,8.80
2007,05,18,03,21,8.80
2007,05,18,03,22,8.80
2007,05,18,03,23,8.80
2007,05,18,03,24,8.80
2007,05,18,03,25,8.80
2007,05,18,03,26,8.80
2007,05,18,03,27,8.70
2007,05,18,03,28,8.70
2007,05,18,03,29,8.70
2007,05,18,03,30,8.70
2007,05,18,03,31,8.70
2007,05,18,03,32,8.60
2007,05,18,03,33,8.60
2007,05,18,03,34,8.60
2007,05,18,03,35,8.60
2007,05,18,03,36,8.60
2007,05,18,03,37,8.60
2007,05,18,03,38,8.50
2007,05,18,03,39,8.50
2007,05,18,03,40,8.50
2007,05,18,03,41,8.40
2007,05,18,03,42,8.40
2007,05,18,03,43,8.40
2007,05,18,03,44,8.40
2007,05,18,03,45,8.40
2007,05,18,03,46,8.30
2007,05,18,03,47,8.30
2007,05,18,03,48,8.30
2007,05,18,03,49,8.30
2007,05,18,03,50,8.30
2007,05,18,03,51,8.20
2007,05,18,03,52,8.20
2007,05,18,03,53,8.10
2007,05,18,03,54,8.10
2007,05,18,03,55,8.10
2007,05,18,03,56,8.00
2007,05,18,03,57,8.00
2007,05,18,03,58,8.00
2007,05,18,03,59,8.00
2007,05,18,04,00,7.90
2007,05,18,04,01,7.90
2007,05,18,04,02,7.90
2007,05,18,04,03,7.90
2007,05,18,04,04,7.90
2007,05,18,04,05,7.90
2007,05,18,04,06,7.90
2007,05,18,04,07,7.90
2007,05,18,04,08,7.90
2007,05,18,04,09,7.90
2007,05,18,04,10,7.90
2007,05,18,04,11,7.90
2007,05,18,04,12,7.90
2007,05,18,04,13,7.90
2007,05,18,04,14,7.90
2007,05,18,04,15,7.90
2007,05,18,04,16,7.90
2007,05,18,04,17,7.90
2007,05,18,04,18,7.80
2007,05,18,04,19,7.80
2007,05,18,04,20,7.80
2007,05,18,04,21,7.80
2007,05,18,04,22,7.80
2007,05,18,04,23,7.80
2007,05,18,04,24,7.80
2007,05,18,04,25,7.70
2007,05,18,04,26,7.70
2007,05,18,04,27,7.70
2007,05,18,04,28,7.70
2007,05,18,04,29,7.70
2007,05,18,04,30,7.70
2007,05,18,04,31,7.70
2007,05,18,04,32,7.60
2007,05,18,04,33,7.60
2007,05,18,04,34,7.60
2007,05,18,04,35,7.60
2007,05,18,04,36,7.50
2007,05,18,04,37,7.40
2007,05,18,04,38,7.40
2007,05,18,04,39,7.40
2007,05,18,04,40,7.30
2007,05,18,04,41,7.30
2007,05,18,04,42,7.30
2007,05,18,04,43,7.30
2007,05,18,04,44,7.30
2007,05,18,04,45,7.20
2007,05,18,04,46,7.20
2007,05,18,04,47,7.20
2007,05,18,04,48,7.20
2007,05,18,04,49,7.20
2007,05,18,04,50,7.20
2007,05,18,04,51,7.20
2007,05,18,04,52,7.20
2007,05,18,04,53,7.20
2007,05,18,04,54,7.10
2007,05,18,04,55,7.10
2007,05,18,04,56,7.10
2007,05,18,04,57,7.10
2007,05,18,04,58,7.00
2007,05,18,04,59,7.00
2007,05,18,05,00,7.00
2007,05,18,05,01,7.10
2007,05,18,05,02,7.10
2007,05,18,05,03,7.00
2007,05,18,05,04,7.00
2007,05,18,05,05,7.00
2007,05,18,05,06,7.00
2007,05,18,05,07,6.90
2007,05,18,05,08,6.90
2007,05,18,05,09,6.90
2007,05,18,05,10,6.90
2007,05,18,05,11,6.80
2007,05,18,05,12,6.80
2007,05,18,05,13,6.80
2007,05,18,05,14,6.80
2007,05,18,05,15,6.70
2007,05,18,05,16,6.70
2007,05,18,05,17,6.70
2007,05,18,05,18,6.70
2007,05,18,05,19,6.60
2007,05,18,05,20,6.60
2007,05,18,05,21,6.60
2007,05,18,05,22,6.50
2007,05,18,05,23,6.50
2007,05,18,05,24,6.50
2007,05,18,05,25,6.40
2007,05,18,05,26,6.40
2007,05,18,05,27,6.40
2007,05,18,05,28,6.30
2007,05,18,05,29,6.30
2007,05,18,05,30,6.30
2007,05,18,05,31,6.30
2007,05,18,05,32,6.20
2007,05,18,05,33,6.20
2007,05,18,05,34,6.20
2007,05,18,05,35,6.20
2007,05,18,05,36,6.20
2007,05,18,05,37,6.10
2007,05,18,05,38,6.10
2007,05,18,05,39,6.10
2007,05,18,05,40,6.10
2007,05,18,05,41,6.00
2007,05,18,05,42,6.00
2007,05,18,05,43,6.00
2007,05,18,05,44,6.00
2007,05,18,05,45,6.00
2007,05,18,05,46,6.00
2007,05,18,05,47,6.00
2007,05,18,05,48,5.90
2007,05,18,05,49,5.90
2007,05,18,05,50,5.90
2007,05,18,05,51,5.90
2007,05,18,05,52,5.90
2007,05,18,05,53,5.90
2007,05,18,05,54,5.90
2007,05,18,05,55,5.90
2007,05,18,05,56,5.90
2007,05,18,05,57,6.00
2007,05,18,05,58,6.00
2007,05,18,05,59,6.00
2007,05,18,06,00,6.10
2007,05,18,06,01,6.10
2007,05,18,06,02,6.20
2007,05,18,06,03,6.20
2007,05,18,06,04,6.20
2007,05,18,06,05,6.30
2007,05,18,06,06,6.30
2007,05,18,06,07,6.30
2007,05,18,06,08,6.40
2007,05,18,06,09,6.40
2007,05,18,06,10,6.50
2007,05,18,06,11,6.50
2007,05,18,06,12,6.60
2007,05,18,06,13,6.70
2007,05,18,06,14,6.70
2007,05,18,06,15,6.70
2007,05,18,06,16,6.80
2007,05,18,06,17,6.80
2007,05,18,06,18,6.90
2007,05,18,06,19,7.00
2007,05,18,06,20,7.10
2007,05,18,06,21,7.10
2007,05,18,06,22,7.20
2007,05,18,06,23,7.20
2007,05,18,06,24,7.30
2007,05,18,06,25,7.30
2007,05,18,06,26,7.30
2007,05,18,06,27,7.40
2007,05,18,06,28,7.40
2007,05,18,06,29,7.50
2007,05,18,06,30,7.50
2007,05,18,06,31,7.50
2007,05,18,06,32,7.60
2007,05,18,06,33,7.60
2007,05,18,06,34,7.60
2007,05,18,06,35,7.60
2007,05,18,06,36,7.70
2007,05,18,06,37,7.70
2007,05,18,06,38,7.70
2007,05,18,06,39,7.70
2007,05,18,06,40,7.70
2007,05,18,06,41,7.80
2007,05,18,06,42,7.80
2007,05,18,06,43,7.90
2007,05,18,06,44,7.90
2007,05,18,06,45,7.90
2007,05,18,06,46,8.00
2007,05,18,06,47,8.00
2007,05,18,06,48,8.10
2007,05,18,06,49,8.20
2007,05,18,06,50,8.30
2007,05,18,06,51,8.30
2007,05,18,06,52,8.40
2007,05,18,06,53,8.40
2007,05,18,06,54,8.50
2007,05,18,06,55,8.60
2007,05,18,06,56,8.60
2007,05,18,06,57,8.70
2007,05,18,06,58,8.80
2007,05,18,06,59,8.90
2007,05,18,07,00,9.00
2007,05,18,07,01,9.00
2007,05,18,07,02,9.20
2007,05,18,07,03,9.20
2007,05,18,07,04,9.30
2007,05,18,07,05,9.40
2007,05,18,07,06,9.50
2007,05,18,07,07,9.50
2007,05,18,07,08,9.60
2007,05,18,07,09,9.70
2007,05,18,07,10,9.80
2007,05,18,07,11,9.90
2007,05,18,07,12,9.90
2007,05,18,07,13,10.00
2007,05,18,07,14,10.10
2007,05,18,07,15,10.10
2007,05,18,07,16,10.10
2007,05,18,07,17,10.20
2007,05,18,07,18,10.20
2007,05,18,07,19,10.30
2007,05,18,07,20,10.30
2007,05,18,07,21,10.40
2007,05,18,07,22,10.40
2007,05,18,07,23,10.40
2007,05,18,07,24,10.50
2007,05,18,07,25,10.50
2007,05,18,07,26,10.60
2007,05,18,07,27,10.70
2007,05,18,07,28,10.70
2007,05,18,07,29,10.80
2007,05,18,07,30,10.80
2007,05,18,07,31,10.80
2007,05,18,07,32,10.90
2007,05,18,07,33,10.90
2007,05,18,07,34,10.90
2007,05,18,07,35,11.00
2007,05,18,07,36,11.00
2007,05,18,07,37,11.00
2007,05,18,07,38,11.00
2007,05,18,07,39,11.00
2007,05,18,07,40,10.90
2007,05,18,07,41,10.90
2007,05,18,07,42,10.90
2007,05,18,07,43,10.90
2007,05,18,07,44,11.00
2007,05,18,07,45,11.00
2007,05,18,07,46,11.10
2007,05,18,07,47,11.10
2007,05,18,07,48,11.20
2007,05,18,07,49,11.20
2007,05,18,07,50,11.30
2007,05,18,07,51,11.30
2007,05,18,07,52,11.30
2007,05,18,07,53,11.40
2007,05,18,07,54,11.40
2007,05,18,07,55,11.40
2007,05,18,07,56,11.50
2007,05,18,07,57,11.60
2007,05,18,07,58,11.60
2007,05,18,07,59,11.60
2007,05,18,08,00,11.60
2007,05,18,08,01,11.60
2007,05,18,08,02,11.60
2007,05,18,08,03,11.60
2007,05,18,08,04,11.60
2007,05,18,08,05,11.60
2007,05,18,08,06,11.60
2007,05,18,08,07,11.70
2007,05,18,08,08,11.70
2007,05,18,08,09,11.80
2007,05,18,08,10,11.80
2007,05,18,08,11,11.90
2007,05,18,08,12,11.90
2007,05,18,08,13,12.00
2007,05,18,08,14,12.00
2007,05,18,08,15,12.00
2007,05,18,08,16,12.00
2007,05,18,08,17,11.90
2007,05,18,08,18,11.90
2007,05,18,08,19,11.80
2007,05,18,08,20,11.80
2007,05,18,08,21,11.70
2007,05,18,08,22,11.70
2007,05,18,08,23,11.60
2007,05,18,08,24,11.60
2007,05,18,08,25,11.70
2007,05,18,08,26,11.70
2007,05,18,08,27,11.70
2007,05,18,08,28,11.70
2007,05,18,08,29,11.70
2007,05,18,08,30,11.70
2007,05,18,08,31,11.60
2007,05,18,08,32,11.60
2007,05,18,08,33,11.70
2007,05,18,08,34,11.80
2007,05,18,08,35,11.80
2007,05,18,08,36,11.80
2007,05,18,08,37,11.90
2007,05,18,08,38,11.90
2007,05,18,08,39,11.90
2007,05,18,08,40,11.90
2007,05,18,08,41,11.90
2007,05,18,08,42,11.90
2007,05,18,08,43,11.90
2007,05,18,08,44,11.90
2007,05,18,08,45,12.00
2007,05,18,08,46,12.00
2007,05,18,08,47,12.00
2007,05,18,08,48,12.00
2007,05,18,08,49,12.10
2007,05,18,08,50,12.10
2007,05,18,08,51,12.20
2007,05,18,08,52,12.20
2007,05,18,08,53,12.20
2007,05,18,08,54,12.30
2007,05,18,08,55,12.30
2007,05,18,08,56,12.40
2007,05,18,08,57,12.40
2007,05,18,08,58,12.50
2007,05,18,08,59,12.60
2007,05,18,09,00,12.70
2007,05,18,09,01,12.70
2007,05,18,09,02,12.70
2007,05,18,09,03,12.70
2007,05,18,09,04,12.70
2007,05,18,09,05,12.70
2007,05,18,09,06,12.60
2007,05,18,09,07,12.60
2007,05,18,09,08,12.60
2007,05,18,09,09,12.60
2007,05,18,09,10,12.70
2007,05,18,09,11,12.70
2007,05,18,09,12,12.70
2007,05,18,09,13,12.70
2007,05,18,09,14,12.70
2007,05,18,09,15,12.70
2007,05,18,09,16,12.70
2007,05,18,09,17,12.70
2007,05,18,09,18,12.80
2007,05,18,09,19,12.80
2007,05,18,09,20,12.80
2007,05,18,09,21,12.80
2007,05,18,09,22,12.80
2007,05,18,09,23,12.70
2007,05,18,09,24,12.60
2007,05,18,09,25,12.60
2007,05,18,09,26,12.50
2007,05,18,09,27,12.50
2007,05,18,09,28,12.50
2007,05,18,09,29,12.50
2007,05,18,09,30,12.60
2007,05,18,09,31,12.60
2007,05,18,09,32,12.70
2007,05,18,09,33,12.80
2007,05,18,09,34,12.80
2007,05,18,09,35,12.80
2007,05,18,09,36,12.80
2007,05,18,09,37,12.80
2007,05,18,09,38,12.70
2007,05,18,09,39,12.70
2007,05,18,09,40,12.70
2007,05,18,09,41,12.70
2007,05,18,09,42,12.70
2007,05,18,09,43,12.70
2007,05,18,09,44,12.70
2007,05,18,09,45,12.70
2007,05,18,09,46,12.70
2007,05,18,09,47,12.70
2007,05,18,09,48,12.70
2007,05,18,09,49,12.60
2007,05,18,09,50,12.60
2007,05,18,09,51,12.60
2007,05,18,09,52,12.60
2007,05,18,09,53,12.60
2007,05,18,09,54,12.70
2007,05,18,09,55,12.80
2007,05,18,09,56,12.70
2007,05,18,09,57,12.70
2007,05,18,09,58,12.60
2007,05,18,09,59,12.50
2007,05,18,10,00,12.50
2007,05,18,10,01,12.50
2007,05,18,10,02,12.60
2007,05,18,10,03,12.70
2007,05,18,10,04,12.70
2007,05,18,10,05,12.80
2007,05,18,10,06,12.90
2007,05,18,10,07,12.90
2007,05,18,10,08,12.80
2007,05,18,10,09,12.80
2007,05,18,10,10,12.80
2007,05,18,10,11,12.80
2007,05,18,10,12,12.80
2007,05,18,10,13,12.80
2007,05,18,10,14,12.80
2007,05,18,10,15,12.70
2007,05,18,10,16,12.70
2007,05,18,10,17,12.70
2007,05,18,10,18,12.80
2007,05,18,10,19,12.80
2007,05,18,10,20,12.80
2007,05,18,10,21,12.80
2007,05,18,10,22,12.80
2007,05,18,10,23,12.80
2007,05,18,10,24,12.90
2007,05,18,10,25,13.00
2007,05,18,10,26,13.10
2007,05,18,10,27,13.10
2007,05,18,10,28,13.10
2007,05,18,10,29,13.10
2007,05,18,10,30,13.10
2007,05,18,10,31,13.10
2007,05,18,10,32,13.20
2007,05,18,10,33,13.10
2007,05,18,10,34,13.10
2007,05,18,10,35,13.00
2007,05,18,10,36,12.80
2007,05,18,10,37,12.80
2007,05,18,10,38,12.70
2007,05,18,10,39,12.70
2007,05,18,10,40,12.80
2007,05,18,10,41,12.90
2007,05,18,10,42,13.00
2007,05,18,10,43,13.20
2007,05,18,10,44,13.30
2007,05,18,10,45,13.40
2007,05,18,10,46,13.40
2007,05,18,10,47,13.50
2007,05,18,10,48,13.60
2007,05,18,10,49,13.60
2007,05,18,10,50,13.60
2007,05,18,10,51,13.60
2007,05,18,10,52,13.60
2007,05,18,10,53,13.70
2007,05,18,10,54,13.80
2007,05,18,10,55,13.80
2007,05,18,10,56,13.90
2007,05,18,10,57,13.90
2007,05,18,10,58,13.90
2007,05,18,10,59,13.90
2007,05,18,11,00,13.90
2007,05,18,11,01,14.00
2007,05,18,11,02,14.10
2007,05,18,11,03,14.30
2007,05,18,11,04,14.40
2007,05,18,11,05,14.50
2007,05,18,11,06,14.60
2007,05,18,11,07,14.70
2007,05,18,11,08,14.90
2007,05,18,11,09,15.00
2007,05,18,11,10,15.00
2007,05,18,11,11,15.00
2007,05,18,11,12,15.20
2007,05,18,11,13,15.30
2007,05,18,11,14,15.40
2007,05,18,11,15,15.60
2007,05,18,11,16,15.70
2007,05,18,11,17,15.80
2007,05,18,11,18,15.90
2007,05,18,11,19,15.90
2007,05,18,11,20,15.80
2007,05,18,11,21,15.80
2007,05,18,11,22,15.70
2007,05,18,11,23,15.70
2007,05,18,11,24,15.70
2007,05,18,11,25,15.70
2007,05,18,11,26,15.60
2007,05,18,11,27,15.60
2007,05,18,11,28,15.60
2007,05,18,11,29,15.60
2007,05,18,11,30,15.60
2007,05,18,11,31,15.60
2007,05,18,11,32,15.50
2007,05,18,11,33,15.30
2007,05,18,11,34,15.20
2007,05,18,11,35,15.20
2007,05,18,11,36,15.20
2007,05,18,11,37,15.20
2007,05,18,11,38,15.30
2007,05,18,11,39,15.30
2007,05,18,11,40,15.40
2007,05,18,11,41,15.40
2007,05,18,11,42,15.50
2007,05,18,11,43,15.50
2007,05,18,11,44,15.40
2007,05,18,11,45,15.40
2007,05,18,11,46,15.40
2007,05,18,11,47,15.40
2007,05,18,11,48,15.30
2007,05,18,11,49,15.30
2007,05,18,11,50,15.30
2007,05,18,11,51,15.40
2007,05,18,11,52,15.50
2007,05,18,11,53,15.50
2007,05,18,11,54,15.60
2007,05,18,11,55,15.50
2007,05,18,11,56,15.40
2007,05,18,11,57,15.40
2007,05,18,11,58,15.20
2007,05,18,11,59,15.20
2007,05,18,12,00,15.20
2007,05,18,12,01,15.30
2007,05,18,12,02,15.30
2007,05,18,12,03,15.30
2007,05,18,12,04,15.20
2007,05,18,12,05,15.20
2007,05,18,12,06,15.20
2007,05,18,12,07,15.20
2007,05,18,12,08,15.30
2007,05,18,12,09,15.30
2007,05,18,12,10,15.40
2007,05,18,12,11,15.60
2007,05,18,12,12,15.60
2007,05,18,12,13,15.80
2007,05,18,12,14,15.80
2007,05,18,12,15,15.90
2007,05,18,12,16,16.00
2007,05,18,12,17,16.10
2007,05,18,12,18,16.10
2007,05,18,12,19,16.10
2007,05,18,12,20,16.10
2007,05,18,12,21,16.10
2007,05,18,12,22,16.20
2007,05,18,12,23,16.10
2007,05,18,12,24,16.00
2007,05,18,12,25,16.00
2007,05,18,12,26,16.00
2007,05,18,12,27,16.10
2007,05,18,12,28,16.10
2007,05,18,12,29,16.20
2007,05,18,12,30,16.10
2007,05,18,12,31,16.00
2007,05,18,12,32,15.90
2007,05,18,12,33,15.90
2007,05,18,12,34,15.90
2007,05,18,12,35,15.90
2007,05,18,12,36,15.80
2007,05,18,12,37,15.80
2007,05,18,12,38,15.80
2007,05,18,12,39,15.80
2007,05,18,12,40,15.80
2007,05,18,12,41,15.80
2007,05,18,12,42,15.90
2007,05,18,12,43,15.90
2007,05,18,12,44,15.90
2007,05,18,12,45,15.80
2007,05,18,12,46,15.80
2007,05,18,12,47,15.80
2007,05,18,12,48,15.80
2007,05,18,12,49,15.70
2007,05,18,12,50,15.70
2007,05,18,12,51,15.70
2007,05,18,12,52,15.70
2007,05,18,12,53,15.90
2007,05,18,12,54,16.00
2007,05,18,12,55,16.00
2007,05,18,12,56,16.10
2007,05,18,12,57,16.20
2007,05,18,12,58,16.20
2007,05,18,12,59,16.30
2007,05,18,13,00,16.30
2007,05,18,13,01,16.30
2007,05,18,13,02,16.40
2007,05,18,13,03,16.30
2007,05,18,13,04,16.30
2007,05,18,13,05,16.10
2007,05,18,13,06,15.90
2007,05,18,13,07,15.80
2007,05,18,13,08,15.80
2007,05,18,13,09,15.90
2007,05,18,13,10,16.00
2007,05,18,13,11,16.10
2007,05,18,13,12,16.20
2007,05,18,13,13,16.30
2007,05,18,13,14,16.30
2007,05,18,13,15,16.20
2007,05,18,13,16,16.20
2007,05,18,13,17,16.20
2007,05,18,13,18,16.30
2007,05,18,13,19,16.30
2007,05,18,13,20,16.40
2007,05,18,13,21,16.50
2007,05,18,13,22,16.50
2007,05,18,13,23,16.40
2007,05,18,13,24,16.40
2007,05,18,13,25,16.40
2007,05,18,13,26,16.50
2007,05,18,13,27,16.60
2007,05,18,13,28,16.70
2007,05,18,13,29,16.80
2007,05,18,13,30,16.80
2007,05,18,13,31,16.80
2007,05,18,13,32,16.70
2007,05,18,13,33,16.60
2007,05,18,13,34,16.50
2007,05,18,13,35,16.40
2007,05,18,13,36,16.30
2007,05,18,13,37,16.30
2007,05,18,13,38,16.20
2007,05,18,13,39,16.10
2007,05,18,13,40,16.20
2007,05,18,13,41,16.20
2007,05,18,13,42,16.10
2007,05,18,13,43,16.20
2007,05,18,13,44,16.20
2007,05,18,13,45,16.30
2007,05,18,13,46,16.30
2007,05,18,13,47,16.30
2007,05,18,13,48,16.30
2007,05,18,13,49,16.20
2007,05,18,13,50,16.20
2007,05,18,13,51,16.10
2007,05,18,13,52,16.00
2007,05,18,13,53,15.90
2007,05,18,13,54,15.90
2007,05,18,13,55,15.90
2007,05,18,13,56,15.90
2007,05,18,13,57,15.90
2007,05,18,13,58,16.10
2007,05,18,13,59,16.20
2007,05,18,14,00,16.20
2007,05,18,14,01,16.20
2007,05,18,14,02,16.20
2007,05,18,14,03,16.10
2007,05,18,14,04,16.10
2007,05,18,14,05,16.10
2007,05,18,14,06,16.20
2007,05,18,14,07,16.20
2007,05,18,14,08,16.40
2007,05,18,14,09,16.50
2007,05,18,14,10,16.60
2007,05,18,14,11,16.60
2007,05,18,14,12,16.60
2007,05,18,14,13,16.50
2007,05,18,14,14,16.50
2007,05,18,14,15,16.40
2007,05,18,14,16,16.30
2007,05,18,14,17,16.20
2007,05,18,14,18,16.10
2007,05,18,14,19,15.90
2007,05,18,14,20,15.80
2007,05,18,14,21,15.70
2007,05,18,14,22,15.60
2007,05,18,14,23,15.50
2007,05,18,14,24,15.50
2007,05,18,14,25,15.50
2007,05,18,14,26,15.50
2007,05,18,14,27,15.50
2007,05,18,14,28,15.60
2007,05,18,14,29,15.60
2007,05,18,14,30,15.60
2007,05,18,14,31,15.60
2007,05,18,14,32,15.60
2007,05,18,14,33,15.60
2007,05,18,14,34,15.70
2007,05,18,14,35,15.80
2007,05,18,14,36,15.90
2007,05,18,14,37,16.00
2007,05,18,14,38,16.10
2007,05,18,14,39,16.20
2007,05,18,14,40,16.40
2007,05,18,14,41,16.50
2007,05,18,14,42,16.60
2007,05,18,14,43,16.50
2007,05,18,14,44,16.50
2007,05,18,14,45,16.60
2007,05,18,14,46,16.70
2007,05,18,14,47,16.70
2007,05,18,14,48,16.80
2007,05,18,14,49,16.80
2007,05,18,14,50,16.80
2007,05,18,14,51,16.90
2007,05,18,14,52,16.90
2007,05,18,14,53,16.90
2007,05,18,14,54,17.00
2007,05,18,14,55,17.00
2007,05,18,14,56,17.10
2007,05,18,14,57,17.20
2007,05,18,14,58,17.10
2007,05,18,14,59,17.00
2007,05,18,15,00,16.80
2007,05,18,15,01,16.50
2007,05,18,15,02,16.20
2007,05,18,15,03,16.10
2007,05,18,15,04,16.00
2007,05,18,15,05,15.80
2007,05,18,15,06,15.80
2007,05,18,15,07,15.70
2007,05,18,15,08,15.70
2007,05,18,15,09,15.70
2007,05,18,15,10,15.60
2007,05,18,15,11,15.50
2007,05,18,15,12,15.40
2007,05,18,15,13,15.40
2007,05,18,15,14,15.50
2007,05,18,15,15,15.50
2007,05,18,15,16,15.60
2007,05,18,15,17,15.60
2007,05,18,15,18,15.60
2007,05,18,15,19,15.60
2007,05,18,15,20,15.70
2007,05,18,15,21,15.70
2007,05,18,15,22,15.80
2007,05,18,15,23,15.90
2007,05,18,15,24,15.90
2007,05,18,15,25,15.90
2007,05,18,15,26,15.90
2007,05,18,15,27,15.90
2007,05,18,15,28,15.90
2007,05,18,15,29,15.90
2007,05,18,15,30,15.90
2007,05,18,15,31,15.80
2007,05,18,15,32,15.90
2007,05,18,15,33,15.90
2007,05,18,15,34,15.90
2007,05,18,15,35,16.00
2007,05,18,15,36,16.10
2007,05,18,15,37,16.00
2007,05,18,15,38,16.00
2007,05,18,15,39,16.00
2007,05,18,15,40,15.90
2007,05,18,15,41,16.00
2007,05,18,15,42,15.90
2007,05,18,15,43,15.90
2007,05,18,15,44,15.80
2007,05,18,15,45,15.80
2007,05,18,15,46,15.90
2007,05,18,15,47,15.90
2007,05,18,15,48,15.90
2007,05,18,15,49,15.90
2007,05,18,15,50,15.80
2007,05,18,15,51,15.50
2007,05,18,15,52,15.30
2007,05,18,15,53,15.10
2007,05,18,15,54,14.90
2007,05,18,15,55,14.70
2007,05,18,15,56,14.50
2007,05,18,15,57,14.50
2007,05,18,15,58,14.30
2007,05,18,15,59,14.30
2007,05,18,16,00,14.30
2007,05,18,16,01,14.40
2007,05,18,16,02,14.50
2007,05,18,16,03,14.60
2007,05,18,16,04,14.60
2007,05,18,16,05,14.50
2007,05,18,16,06,14.50
2007,05,18,16,07,14.40
2007,05,18,16,08,14.30
2007,05,18,16,09,14.20
2007,05,18,16,10,14.20
2007,05,18,16,11,14.20
2007,05,18,16,12,14.10
2007,05,18,16,13,14.10
2007,05,18,16,14,14.10
2007,05,18,16,15,14.00
2007,05,18,16,16,13.90
2007,05,18,16,17,13.70
2007,05,18,16,18,13.60
2007,05,18,16,19,13.40
2007,05,18,16,20,13.30
2007,05,18,16,21,13.30
2007,05,18,16,22,13.20
2007,05,18,16,23,13.30
2007,05,18,16,24,13.40
2007,05,18,16,25,13.50
2007,05,18,16,26,13.50
2007,05,18,16,27,13.60
2007,05,18,16,28,13.70
2007,05,18,16,29,13.80
2007,05,18,16,30,13.80
2007,05,18,16,31,13.80
2007,05,18,16,32,13.90
2007,05,18,16,33,13.90
2007,05,18,16,34,14.00
2007,05,18,16,35,14.00
2007,05,18,16,36,14.10
2007,05,18,16,37,14.20
2007,05,18,16,38,14.30
2007,05,18,16,39,14.40
2007,05,18,16,40,14.50
2007,05,18,16,41,14.70
2007,05,18,16,42,14.70
2007,05,18,16,43,14.80
2007,05,18,16,44,14.90
2007,05,18,16,45,15.00
2007,05,18,16,46,15.00
2007,05,18,16,47,15.00
2007,05,18,16,48,15.00
2007,05,18,16,49,15.00
2007,05,18,16,50,15.00
2007,05,18,16,51,15.00
2007,05,18,16,52,15.00
2007,05,18,16,53,15.00
2007,05,18,16,54,15.10
2007,05,18,16,55,15.10
2007,05,18,16,56,15.10
2007,05,18,16,57,15.10
2007,05,18,16,58,15.00
2007,05,18,16,59,15.10
2007,05,18,17,00,15.20
2007,05,18,17,01,15.20
2007,05,18,17,02,15.20
2007,05,18,17,03,15.20
2007,05,18,17,04,15.10
2007,05,18,17,05,15.20
2007,05,18,17,06,15.20
2007,05,18,17,07,15.10
2007,05,18,17,08,15.10
2007,05,18,17,09,15.20
2007,05,18,17,10,15.20
2007,05,18,17,11,15.20
2007,05,18,17,12,15.30
2007,05,18,17,13,15.20
2007,05,18,17,14,15.20
2007,05,18,17,15,15.30
2007,05,18,17,16,15.30
2007,05,18,17,17,15.30
2007,05,18,17,18,15.20
2007,05,18,17,19,15.10
2007,05,18,17,20,15.10
2007,05,18,17,21,15.10
2007,05,18,17,22,15.10
2007,05,18,17,23,15.00
2007,05,18,17,24,15.00
2007,05,18,17,25,15.00
2007,05,18,17,26,15.00
2007,05,18,17,27,15.00
2007,05,18,17,28,15.00
2007,05,18,17,29,15.00
2007,05,18,17,30,15.00
2007,05,18,17,31,15.00
2007,05,18,17,32,14.90
2007,05,18,17,33,14.80
2007,05,18,17,34,14.80
2007,05,18,17,35,14.80
2007,05,18,17,36,14.80
2007,05,18,17,37,14.80
2007,05,18,17,38,14.80